This is the latest recevied weather packets stored in our database for station/object KD1KE. If no packets are shown the sender has not sent any weather packets the latest 10 day(s).
| Time | Temp. | Humidity | Pressure | Rain* | Wind** | Luminosity | Snow |
|---|---|---|---|---|---|---|---|
| 1777563215 | 6.11° C | 92% | 1008.2 hPa | 1.27 mm | - | - | - |
| 1777562822 | 6.11° C | 92% | 1008 hPa | 1.27 mm | - | - | - |
| 1777562554 | 6.11° C | 92% | 1008 hPa | 1.27 mm | - | - | - |
| 1777562282 | 6.11° C | 93% | 1008 hPa | 1.27 mm | - | - | - |
| 1777561893 | 6.11° C | 92% | 1008.2 hPa | 1.78 mm | - | - | - |
| 1777561742 | 6.11° C | 92% | 1008.3 hPa | 1.27 mm | - | - | - |
| 1777561233 | 6.11° C | 92% | 1008.4 hPa | 1.78 mm | - | - | - |
| 1777561203 | 6.11° C | 93% | 1008.3 hPa | 1.78 mm | - | - | - |
| 1777560663 | 6.11° C | 93% | 1008.5 hPa | 1.78 mm | - | - | - |
| 1777560574 | 6.11° C | 93% | 1008.5 hPa | 1.78 mm | - | - | - |
| 1777560122 | 6.11° C | 93% | 1008.6 hPa | 1.27 mm | - | - | - |
| 1777559914 | 6.11° C | 92% | 1008.7 hPa | 1.27 mm | - | - | - |
| 1777559253 | 6.11° C | 92% | 1009 hPa | 0.76 mm | - | - | - |
| 1777559042 | 5.56° C | 92% | 1008.9 hPa | 0.76 mm | - | - | - |
| 1777558594 | 6.11° C | 92% | 1009 hPa | 0.51 mm | - | - | - |
| 1777558552 | 6.11° C | 92% | 1009 hPa | 0.25 mm | - | - | - |
| 1777558503 | 6.11° C | 92% | 1009 hPa | 0.25 mm | - | - | - |
| 1777557965 | 6.11° C | 93% | 1008.9 hPa | 0.25 mm | - | - | - |
| 1777557934 | 6.11° C | 93% | 1008.9 hPa | 0.25 mm | - | - | - |
| 1777557423 | 6.11° C | 93% | 1009 hPa | 1.27 mm | - | - | - |
| 1777557273 | 6.11° C | 93% | 1008.9 hPa | 1.78 mm | - | - | - |
| 1777556883 | 6.11° C | 93% | 1008.8 hPa | 2.29 mm | - | - | - |
| 1777556613 | 6.11° C | 93% | 1008.9 hPa | 2.79 mm | - | - | - |
| 1777556341 | 6.11° C | 93% | 1008.9 hPa | 3.81 mm | - | - | - |
| 1777555953 | 6.11° C | 93% | 1008.9 hPa | 5.08 mm | - | - | - |
* Rain latest hour (hover to see other rain measurements)
** Current wind speed in m/s (hover to see current wind gust speed)